This is the latest recevied weather packets stored in our database for station/object F4WDE-10. If no packets are shown the sender has not sent any weather packets the latest 10 day(s).
| Time | Temp. | Humidity | Pressure | Rain* | Wind** | Luminosity | Snow |
|---|---|---|---|---|---|---|---|
| 1777555952 | 22.78° C | 43% | 964 hPa | - | - | - | - |
| 1777555051 | 23.89° C | 44% | 964 hPa | - | - | - | - |
| 1777554150 | 24.44° C | 43% | 964 hPa | - | - | - | - |
| 1777553249 | 25° C | 42% | 964 hPa | - | - | - | - |
| 1777552348 | 23.33° C | 41% | 964 hPa | - | - | - | - |
| 1777551447 | 24.44° C | 40% | 964 hPa | - | - | - | - |
| 1777550546 | 23.33° C | 44% | 964 hPa | - | - | - | - |
| 1777549644 | 22.78° C | 45% | 964 hPa | - | - | - | - |
| 1777548743 | 23.33° C | 45% | 964 hPa | - | - | - | - |
| 1777547842 | 23.33° C | 45% | 964 hPa | - | - | - | - |
| 1777546941 | 22.78° C | 46% | 965 hPa | - | - | - | - |
| 1777546040 | 22.78° C | 47% | 965 hPa | - | - | - | - |
| 1777545139 | 22.22° C | 48% | 965 hPa | - | - | - | - |
| 1777544238 | 22.78° C | 49% | 965 hPa | - | - | - | - |
| 1777543336 | 23.33° C | 53% | 965 hPa | - | - | - | - |
| 1777542435 | 22.22° C | 57% | 965 hPa | - | - | - | - |
| 1777541534 | 22.78° C | 52% | 964 hPa | - | - | - | - |
| 1777540633 | 21.67° C | 57% | 964 hPa | - | - | - | - |
| 1777539731 | 20° C | 63% | 964 hPa | - | - | - | - |
| 1777538830 | 20° C | 66% | 964 hPa | - | - | - | - |
| 1777537929 | 20° C | 65% | 964 hPa | - | - | - | - |
| 1777537028 | 18.33° C | 65% | 964 hPa | - | - | - | - |
| 1777536127 | 18.33° C | 63% | 964 hPa | - | - | - | - |
| 1777535226 | 18.89° C | 69% | 964 hPa | - | - | - | - |
| 1777534325 | 19.44° C | 64% | 963 hPa | - | - | - | - |
* Rain since midnight (hover to see other rain measurements)
** Current wind speed in m/s (hover to see current wind gust speed)